When you browse on this site, cookies collect data to enhance your experience and personalize the content and advertising you see.
Visit our Privacy Policy to learn more. By continuing to use the site, you agree to this use of cookies and data.
  • In Hungary
  • List of Countries
  • For 7 days
  • Water Temperature
  • Satellite Maps
  • Weather Map
  • News
  • Weather Widgets
  • user-avatar
    Login

    Hourly Weather Alashkovschina

    Today, 18 January, Friday

    Time Temperature Precipitation Wind Pressure Humidity
    00:00 -2°C° 0 mm 6 mps 735 mmHg 87%
    01:00 -2°C° 0 mm 6 mps 735 mmHg 88%
    02:00 -3°C° 0 mm 6 mps 736 mmHg 88%
    03:00 -2°C° 0 mm 5 mps 736 mmHg 89%
    04:00 -2°C° 0 mm 5 mps 736 mmHg 90%
    05:00 -4°C° 0 mm 5 mps 736 mmHg 91%
    06:00 -3°C° 0.2 mm 4 mps 736 mmHg 93%
    07:00 -3°C° 0.2 mm 4 mps 736 mmHg 94%
    08:00 -2°C° 0.2 mm 3 mps 736 mmHg 95%
    09:00 -2°C° 1 mm 3 mps 736 mmHg 95%
    10:00 -2°C° 1 mm 3 mps 737 mmHg 96%
    11:00 -4°C° 1 mm 3 mps 737 mmHg 96%
    12:00 -5°C° 1.2 mm 4 mps 737 mmHg 95%
    13:00 -7°C° 1.2 mm 4 mps 737 mmHg 94%
    14:00 -8°C° 1.2 mm 5 mps 737 mmHg 92%
    15:00 -8°C° 0.2 mm 5 mps 738 mmHg 90%
    16:00 -8°C° 0.2 mm 4 mps 739 mmHg 87%
    17:00 -7°C° 0.2 mm 3 mps 740 mmHg 85%
    18:00 -8°C° 0 mm 3 mps 741 mmHg 87%
    19:00 -8°C° 0 mm 3 mps 742 mmHg 89%
    20:00 -9°C° 0 mm 3 mps 743 mmHg 91%
    21:00 -9°C° 0 mm 4 mps 743 mmHg 92%
    22:00 -9°C° 0 mm 4 mps 744 mmHg 92%
    23:00 -9°C° 0 mm 4 mps 744 mmHg 92%

    Tomorrow, 19 January, Saturday

    Time Temperature Precipitation Wind Pressure Humidity
    00:00 -9°C° 0 mm 4 mps 744 mmHg 91%
    01:00 -9°C° 0 mm 4 mps 745 mmHg 91%
    02:00 -9°C° 0 mm 4 mps 745 mmHg 90%
    03:00 -9°C° 0 mm 4 mps 745 mmHg 90%
    04:00 -9°C° 0 mm 4 mps 745 mmHg 90%
    05:00 -9°C° 0 mm 4 mps 745 mmHg 91%
    06:00 -9°C° 0 mm 4 mps 746 mmHg 91%
    07:00 -9°C° 0 mm 4 mps 746 mmHg 91%
    08:00 -9°C° 0 mm 4 mps 747 mmHg 91%
    09:00 -8°C° 0 mm 4 mps 747 mmHg 91%
    10:00 -8°C° 0 mm 4 mps 747 mmHg 90%
    11:00 -7°C° 0 mm 4 mps 748 mmHg 89%
    12:00 -7°C° 0 mm 4 mps 748 mmHg 88%
    13:00 -5°C° 0 mm 4 mps 748 mmHg 87%
    14:00 -5°C° 0 mm 4 mps 748 mmHg 87%
    15:00 -5°C° 0 mm 3 mps 748 mmHg 89%
    16:00 -6°C° 0 mm 3 mps 748 mmHg 91%
    17:00 -7°C° 0 mm 3 mps 749 mmHg 93%
    18:00 -6°C° 0 mm 3 mps 749 mmHg 94%
    19:00 -6°C° 0 mm 3 mps 749 mmHg 95%
    20:00 -6°C° 0 mm 3 mps 749 mmHg 95%
    21:00 -5°C° 0 mm 3 mps 749 mmHg 94%
    22:00 -4°C° 0 mm 4 mps 749 mmHg 93%
    23:00 -3°C° 0 mm 4 mps 749 mmHg 91%

    Day after tomorrow, 20 January, Sunday

    Time Temperature Precipitation Wind Pressure Humidity
    00:00 -5°C° 0 mm 5 mps 749 mmHg 91%
    01:00 -5°C° 0 mm 5 mps 748 mmHg 90%
    02:00 -5°C° 0 mm 5 mps 748 mmHg 89%
    03:00 -5°C° 0 mm 5 mps 748 mmHg 89%
    04:00 -5°C° 0 mm 5 mps 748 mmHg 89%
    05:00 -5°C° 0 mm 6 mps 747 mmHg 89%
    06:00 -5°C° 0 mm 6 mps 747 mmHg 88%
    07:00 -5°C° 0 mm 6 mps 747 mmHg 88%
    08:00 -5°C° 0 mm 6 mps 747 mmHg 87%
    09:00 -5°C° 0 mm 6 mps 747 mmHg 87%
    10:00 -6°C° 0 mm 7 mps 747 mmHg 87%
    11:00 -6°C° 0 mm 7 mps 747 mmHg 87%
    12:00 -5°C° 0.4 mm 6 mps 747 mmHg 89%
    13:00 -5°C° 0.4 mm 5 mps 747 mmHg 91%
    14:00 -4°C° 0.4 mm 4 mps 747 mmHg 93%
    15:00 -5°C° 0.3 mm 3 mps 747 mmHg 92%
    16:00 -5°C° 0.3 mm 2 mps 747 mmHg 92%
    17:00 -3°C° 0.3 mm 1 mps 747 mmHg 92%
    18:00 -6°C° 0 mm 1 mps 747 mmHg 92%
    19:00 -8°C° 0 mm 2 mps 747 mmHg 92%
    20:00 -9°C° 0 mm 2 mps 747 mmHg 92%
    21:00 -9°C° 0 mm 2 mps 748 mmHg 92%
    22:00 -10°C° 0 mm 2 mps 748 mmHg 93%
    23:00 -10°C° 0 mm 2 mps 748 mmHg 93%

    21 January, Monday

    Time Temperature Precipitation Wind Pressure Humidity
    00:00 -12°C° 0 mm 2 mps 749 mmHg 93%
    01:00 -12°C° 0 mm 2 mps 749 mmHg 93%
    02:00 -12°C° 0 mm 2 mps 749 mmHg 93%
    03:00 -13°C° 0 mm 2 mps 749 mmHg 94%
    04:00 -13°C° 0 mm 2 mps 749 mmHg 94%
    05:00 -13°C° 0 mm 2 mps 749 mmHg 95%
    06:00 -13°C° 0 mm 2 mps 750 mmHg 94%
    07:00 -13°C° 0 mm 2 mps 750 mmHg 94%
    08:00 -14°C° 0 mm 3 mps 750 mmHg 94%
    09:00 -13°C° 0 mm 3 mps 750 mmHg 93%
    10:00 -12°C° 0 mm 3 mps 751 mmHg 92%
    11:00 -10°C° 0 mm 4 mps 751 mmHg 91%
    12:00 -10°C° 0 mm 4 mps 751 mmHg 91%
    13:00 -9°C° 0 mm 4 mps 751 mmHg 90%
    14:00 -8°C° 0 mm 4 mps 751 mmHg 90%
    15:00 -8°C° 0 mm 3 mps 752 mmHg 91%
    16:00 -9°C° 0 mm 3 mps 752 mmHg 92%
    17:00 -10°C° 0 mm 3 mps 752 mmHg 93%
    18:00 -10°C° 0 mm 3 mps 752 mmHg 93%
    19:00 -12°C° 0 mm 3 mps 752 mmHg 93%
    20:00 -12°C° 0 mm 3 mps 752 mmHg 93%
    21:00 -12°C° 0 mm 3 mps 752 mmHg 93%
    22:00 -12°C° 0 mm 3 mps 752 mmHg 93%
    23:00 -12°C° 0 mm 3 mps 752 mmHg 93%

    22 January, Tuesday

    Time Temperature Precipitation Wind Pressure Humidity
    00:00 -12°C° 0 mm 3 mps 752 mmHg 92%
    01:00 -12°C° 0 mm 3 mps 751 mmHg 92%
    02:00 -12°C° 0 mm 3 mps 751 mmHg 91%
    03:00 -12°C° 0 mm 4 mps 750 mmHg 91%
    04:00 -11°C° 0 mm 4 mps 750 mmHg 91%
    05:00 -11°C° 0 mm 4 mps 749 mmHg 90%
    06:00 -10°C° 0.1 mm 4 mps 749 mmHg 90%
    07:00 -10°C° 0.1 mm 5 mps 748 mmHg 91%
    08:00 -8°C° 0.1 mm 5 mps 748 mmHg 91%
    09:00 -7°C° 0.3 mm 5 mps 748 mmHg 90%
    10:00 -8°C° 0.3 mm 6 mps 747 mmHg 90%
    11:00 -6°C° 0.3 mm 6 mps 747 mmHg 90%
    12:00 -6°C° 0.2 mm 6 mps 747 mmHg 90%
    13:00 -6°C° 0.2 mm 5 mps 747 mmHg 89%
    14:00 -5°C° 0.2 mm 5 mps 746 mmHg 89%
    15:00 -6°C° 0 mm 5 mps 746 mmHg 90%
    16:00 -5°C° 0 mm 4 mps 746 mmHg 91%
    17:00 -5°C° 0 mm 3 mps 746 mmHg 92%
    18:00 -6°C° 0 mm 3 mps 746 mmHg 93%
    19:00 -6°C° 0 mm 3 mps 746 mmHg 93%
    20:00 -7°C° 0 mm 3 mps 746 mmHg 94%
    21:00 -7°C° 0 mm 3 mps 746 mmHg 95%
    22:00 -7°C° 0 mm 2 mps 746 mmHg 95%
    23:00 -7°C° 0 mm 2 mps 746 mmHg 95%

    23 January, Wednesday

    Time Temperature Precipitation Wind Pressure Humidity
    00:00 -7°C° 0 mm 2 mps 747 mmHg 96%
    01:00 -7°C° 0 mm 2 mps 747 mmHg 96%
    02:00 -7°C° 0 mm 2 mps 747 mmHg 96%
    03:00 -8°C° 0 mm 2 mps 746 mmHg 95%
    04:00 -9°C° 0 mm 2 mps 746 mmHg 95%
    05:00 -10°C° 0 mm 2 mps 746 mmHg 95%
    06:00 -10°C° 0 mm 2 mps 746 mmHg 94%
    07:00 -12°C° 0 mm 2 mps 746 mmHg 93%
    08:00 -13°C° 0 mm 2 mps 746 mmHg 92%
    09:00 -12°C° 0 mm 2 mps 746 mmHg 90%
    10:00 -10°C° 0 mm 2 mps 746 mmHg 89%
    11:00 -10°C° 0 mm 2 mps 746 mmHg 87%
    12:00 -9°C° 0 mm 2 mps 746 mmHg 87%
    13:00 -9°C° 0 mm 2 mps 746 mmHg 87%
    14:00 -8°C° 0 mm 2 mps 746 mmHg 87%
    15:00 -9°C° 0 mm 2 mps 746 mmHg 89%
    16:00 -10°C° 0 mm 2 mps 746 mmHg 91%
    17:00 -13°C° 0 mm 2 mps 746 mmHg 93%
    18:00 -13°C° 0 mm 2 mps 746 mmHg 94%
    19:00 -14°C° 0 mm 2 mps 746 mmHg 95%
    20:00 -14°C° 0 mm 2 mps 746 mmHg 96%
    21:00 -14°C° 0 mm 2 mps 746 mmHg 96%
    22:00 -14°C° 0 mm 2 mps 746 mmHg 96%
    23:00 -14°C° 0 mm 2 mps 746 mmHg 97%
    Show more